Lid_Strength_Index
4 4 4 4 5 5 5 5 5 5 5 4 4 4 4 3 4 5 5 2 4 7 6 6 5 7 7 7 9 7 8 7 8 11 11 12 13 11 12 11 12 13 15 15 14 15 17 8 8 13 10 7 7 7
3 3 3 3 4 4 4 3 3 4 4 4 4 4 4 4 3 4 5 3 2 6 6 4 5 4 4 5 6 6 7 7 7 10 10 10 12 10 11 15 9 14 12 14 13 13 9 7 9 7 6 7 7 7
3 3 3 3 3 3 3 3 3 4 4 4 4 4 4 4 4 4 6 5 4 6 6 5 5 3 2 2 2 6 5 5 6 5 8 9 12 9 13 12 11 9 8 12 11 9 8 7 6 6 6 6 5 5
4 4 4 3 3 3 3 3 3 4 4 4 4 4 4 4 4 5 7 5 5 6 8 6 3 5 3 2 2 2 4 4 4 5 8 9 11 7 11 10 10 8 9 10 11 9 8 7 6 6 5 5 5 5
4 4 4 4 4 4 3 3 3 3 4 4 4 4 4 4 4 5 6 5 3 5 8 8 6 3 3 2 2 3 4 5 5 7 8 9 7 8 8 8 10 7 9 10 11 8 8 8 6 5 6 6 5 5
4 4 4 4 4 4 3 3 3 3 4 4 4 4 5 5 5 6 6 2 2 2 7 10 5 4 2 2 3 3 4 5 6 7 8 7 5 8 11 12 8 6 5 5 7 6 6 5 5 4 5 5 4 5
4 4 4 4 4 4 3 3 3 4 4 4 4 4 5 5 6 7 7 4 4 2 7 9 8 3 2 3 3 4 4 5 6 7 8 7 7 7 9 12 8 6 5 5 4 5 6 6 6 5 4 4 4 4
4 4 4 4 4 4 3 3 3 4 4 4 4 5 5 5 5 5 3 4 3 4 5 9 9 7 3 6 7 4 6 6 6 7 7 8 7 8 11 8 7 6 5 5 5 4 5 4 4 5 4 4 5 5
4 4 4 4 4 4 4 3 4 4 4 4 4 4 5 5 5 3 2 2 2 4 8 8 10 11 4 6 5 5 5 9 6 9 8 7 9 12 9 8 7 6 6 6 5 4 4 5 5 5 5 5 5 5
3 3 4 4 4 4 4 4 4 4 4 5 5 5 6 3 1 1 4 5 6 5 6 8 6 9 6 7 8 8 7 9 12 9 7 10 10 7 7 6 6 6 5 5 6 7 6 6 5 5 5 4 4 4
4 4 4 4 4 4 4 4 3 4 4 5 5 5 2 1 3 4 7 8 7 9 7 7 6 8 5 9 9 7 9 9 13 11 11 12 12 9 6 6 5 5 4 4 4 4 4 5 5 5 5 4 4 4
3 4 3 4 3 3 3 3 3 4 4 6 6 3 2 4 6 8 9 7 8 10 7 8 7 6 6 6 9 8 10 10 13 8 11 13 10 7 6 6 5 4 4 4 4 4 4 4 4 4 4 4 4 4
3 3 4 4 3 3 3 3 4 4 4 3 4 5 6 6 11 11 12 10 10 8 7 7 8 7 6 6 9 10 12 12 8 12 13 11 8 6 6 6 5 4 4 4 4 4 4 4 4 4 4 4 3 4
3 4 3 4 4 3 3 3 4 4 4 5 6 12 9 10 9 8 8 8 6 6 6 6 7 8 7 9 9 12 10 10 13 14 13 10 8 8 7 5 5 5 5 5 5 4 4 4 4 4 3 3 3 4
3 4 4 4 4 3 3 4 4 4 4 6 6 11 9 6 5 5 5 5 5 4 5 6 6 7 9 10 9 11 12 14 13 13 11 8 7 7 6 5 5 5 5 5 4 4 4 4 4 4 3 3 3 3
3 3 4 3 3 3 4 4 4 4 4 6 6 8 6 7 6 5 6 6 4 4 4 5 7 10 11 10 12 12 13 15 13 10 8 7 7 6 6 5 5 4 4 4 4 4 4 4 4 4 3 3 3 3
3 4 3 3 3 3 4 5 4 6 6 7 7 5 5 6 6 5 5 5 3 5 8 7 10 12 9 11 12 10 12 11 9 8 7 7 6 5 5 5 5 4 4 4 4 4 4 3 3 4 5 4 3 3
4 2 3 3 3 4 4 4 5 6 7 6 7 6 5 4 5 5 4 4 4 6 6 7 6 10 11 12 12 9 8 7 6 6 6 6 5 4 4 5 4 4 4 4 4 4 4 4 4 5 4 4 3 3
3 3 3 3 3 3 4 5 4 7 6 5 5 4 4 4 4 3 3 3 3 3 5 6 8 9 9 8 8 7 6 6 6 5 5 4 4 4 4 4 4 4 4 4 4 4 4 4 4 4 3 3 4 4
4 4 3 3 4 3 5 5 3 6 7 6 5 5 5 5 4 4 4 4 4 5 7 8 8 7 7 6 5 5 5 4 5 6 6 5 4 4 4 4 4 4 4 4 4 6 4 4 3 3 3 3 4 4
4 4 3 3 3 4 5 5 5 5 5 6 5 5 6 4 5 5 5 4 6 6 7 6 5 5 4 3 3 4 4 4 5 5 5 6 4 4 4 4 3 4 4 4 4 4 4 4 3 3 3 3 3 3
4 3 3 3 5 5 6 4 6 4 6 6 6 5 6 7 6 6 4 6 6 6 5 5 4 4 4 4 4 3 3 3 3 4 5 5 5 5 4 4 4 4 4 4 4 4 4 3 3 3 3 3 4 3
3 3 4 5 7 8 9 4 7 6 8 7 6 7 7 7 6 4 7 6 6 4 3 4 4 3 4 3 3 3 3 3 4 4 4 3 4 3 3 3 3 4 4 4 3 3 3 5 3 3 3 3 3 3
4 5 7 7 8 9 5 6 6 6 6 7 7 8 7 7 5 7 8 7 5 4 4 4 4 4 4 3 4 4 3 3 3 3 3 3 4 4 3 3 3 3 3 3 3 3 3 3 4 2 3 3 3 3
9 9 9 11 7 8 8 8 8 8 9 8 8 8 8 6 9 9 9 7 5 5 4 4 4 4 5 5 4 3 2 3 4 4 3 3 3 3 3 3 3 2 2 3 3 3 3 3 3 3 3 3 3 3
12 8 10 8 8 9 8 9 8 8 8 8 8 7 6 8 9 10 8 6 5 5 5 4 4 5 5 4 4 4 3 2 3 4 3 2 3 3 4 4 4 3 2 2 3 3 3 3 3 3 3 3 7 3
11 9 6 5 6 7 7 6 6 7 8 9 8 8 9 11 10 8 5 4 4 3 3 2 3 3 4 4 3 2 2 2 2 3 2 2 2 2 2 3 4 3 1 1 2 2 3 3 3 3 3 3 2 2
8 7 9 7 7 6 8 7 8 8 7 6 7 10 10 10 9 5 4 2 2 2 2 2 2 2 3 2 2 2 2 2 2 2 2 2 1 1 1 1 1 6 2 3 1 1 2 2 2 2 2 3 3 2
8 6 6 7 7 7 7 7 7 6 5 6 8 8 8 5 4 3 2 2 1 2 3 3 3 2 2 2 2 1 2 2 4 5 5 5 4 3 1 1 1 1 1 1 8 5 2 2 2 2 2 2 2 2
8 5 7 7 8 8 7 5 6 5 4 5 4 4 4 4 2 1 2 2 3 3 3 3 2 3 3 3 3 3 2 2 2 3 5 5 4 2 2 1 2 1 1 1 1 1 4 2 4 1 2 2 2 2
5 5 7 7 7 6 5 4 4 4 4 4 4 5 5 4 3 2 2 2 2 2 3 3 3 3 3 3 3 4 4 2 2 1 1 2 2 1 1 1 1 1 1 1 1 1 2 2 2 2 2 2 2 2
6 7 7 8 7 4 4 5 6 6 6 6 5 5 5 5 6 4 2 2 3 3 4 3 3 3 2 2 2 2 5 3 2 1 1 1 1 1 1 1 0 1 1 1 1 1 1 2 2 2 2 2 2 2
6 5 6 6 6 6 5 5 6 7 6 7 7 6 6 6 8 4 1 1 2 3 3 2 1 2 2 2 3 3 6 6 9 11 10 10 10 6 1 0 0 1 1 1 1 1 1 2 2 2 2 2 2 2